User: anonymous   Login
Location: Unspecified
(0.0000°N, 0.0000°E)
Time: 18:17:59
(UTC+00:00)
Language:

deb r/b Ablestar - Orbit

View from above orbital plane
View from above orbital plane
View from above satellite
View from above satellite

Ground track
Ground track

The orbit data is extracted from the following two-line orbital elements,

1 00335U 61015DM  15124.42654850  .00000470  00000-0  27585-3 0  9992
2 00335 066.8435 049.8346 0049548 289.5894 069.9853 14.16027774751769
Epoch (UTC): 04 May 2015 10:14:13
Eccentricity: 0.0049548
inclination: 66.8435°
perigee height: 803 km
apogee height: 874 km
right ascension of ascending node: 49.8346°
argument of perigee: 289.5894°
revolutions per day: 14.16027774
mean anomaly at epoch: 69.9853°
orbit number at epoch: 75176

The dashed part of the orbit path shows where the satellite is in the earth's shadow,  

DLR